Weather in Tykhe

Ukraine / Dnipropetrovsk Region     48°08′32″N   35°50′16″E
temp.,
°C
wind,
m/s
gust,
m/s
humid.,
%
clouds,
%
prec.,
mm/h
press.,
hPa
HPBL,
m
18 april, sun
sun1800:00+8s2267100 0.0 102023
03:00+7ssw3476100 0.0 1019104
06:00+6sw238162 0.0 101978
09:00+10ssw33599 0.0 1018515
12:00+14s4446100 0.1 10182027
15:00+14ssw2343100 0.1 10171686
18:00+14ese1148100 0.0 1016203
21:00+11w2258100 0.0 101728
19 april, mon
mon1900:00+9nnw357298 0.0 101791
03:00+7nnw1179100 0.0 101711
06:00+7n3381100 0.0 101755
09:00+10n226799 0.0 1017453
12:00+14nnw2252100 0.0 10161470
15:00+14nw2246100 0.1 10151602
18:00+14nne1253100 0.0 1015429
21:00+12ene2258100 0.0 101419
20 april, tue
tue2000:00+11ne3563100 0.0 1012110
03:00+10ne4972100 0.0 1010222
06:00+9ne4878100 0.1 1008296
09:00+8ne61292100 3.1 1004453
12:00+10ene71296100 7.3 9991012
15:00+12ssw8128524 11.2 998859
18:00+11sw8138299 0.5 9971053
21:00+8w5792100 0.8 999613
21 april, wed
wed2100:00+8w61191100 0.3 1002752
03:00+8w7138997 0.8 1006787
06:00+8w61089100 0.0 1010593
09:00+10w567588 0.0 1013885
12:00+11wsw6764100 0.3 10151376
15:00+11w6759100 0.3 10161387
18:00+11wnw5860100 0.0 10171088
21:00+7nne227161 0.0 101917
22 april, thu
thu2200:00+7se3373100 0.0 102042
03:00+7sse3379100 0.0 102049
06:00+7ssw348979 0.1 102191
09:00+11ssw457082 0.1 1021645
12:00+15sw555526 0.5 10211588
15:00+16ssw5547100 1.3 10192048
18:00+14ssw476421 0.9 1020477
21:00+11ssw467784 0.9 1021122